View from above orbital plane
|
View from above satellite
|
Ground track
|
The orbit data is extracted from the following two-line orbital elements,
1 28353U 04021B 21059.60549805 -.00000201 00000-0 -80439-4 0 9995
2 28353 71.0013 122.1020 0007495 294.8997 65.1345 14.14242324863352
Epoch (UTC): | 28 February 2021 14:31:55 |
Eccentricity: | 0.0007495 |
inclination: | 71.0013° |
perigee height: | 839 km |
apogee height: | 850 km |
right ascension of ascending node: | 122.1020° |
argument of perigee: | 294.8997° |
revolutions per day: | 14.14242324 |
mean anomaly at epoch: | 65.1345° |
orbit number at epoch: | 86335 |
The dashed part of the orbit path shows where the satellite is in the earth's shadow,
|
|